• MPC Preparation (Info)

  • MPEC 2019-T32 : 2019 SU9

    The following Minor Planet Electronic Circular may be linked-to from your own Web pages, but must not otherwise be redistributed electronically.

    A form allowing access to any MPEC is at the bottom of this page.


    Read MPEC 2019-T31 Read MPEC 2019-T33


    M.P.E.C. 2019-T32                               Issued 2019 October 2, 01:52 UT
    
         The Minor Planet Electronic Circulars contain information on unusual
             minor planets and routine data on comets.  They are published
        on behalf of Division F of the International Astronomical Union by the
              Minor Planet Center, Smithsonian Astrophysical Observatory,
                              Cambridge, MA 02138, U.S.A.
    
                 Prepared using the Tamkin Foundation Computer Network
    
                                  MPC@CFA.HARVARD.EDU
                URL https://www.minorplanetcenter.net/    ISSN 1523-6714
    
                                    2019 SU9                                 
    
    
    Observations:
         K19S09U  C2019 09 04.57147500 22 05.770+20 05 53.06         21.8 GVET032F51
         K19S09U  C2019 09 04.58346300 22 07.084+20 06 11.94         22.2 GVET032F51
         K19S09U  C2019 09 04.59547000 22 08.409+20 06 30.98         21.9 GVET032F51
         K19S09U  C2019 09 04.60747500 22 09.712+20 06 49.48         21.7 GVET032F51
         K19S09U* C2019 09 30.53814 01 30 59.651+30 34 37.03         21.4 wUET032F51
         K19S09U  C2019 09 30.54986 01 31 01.600+30 34 48.06         21.0 wUET032F51
         K19S09U  C2019 09 30.56160 01 31 03.584+30 34 58.89         20.9 wUET032F51
         K19S09U  C2019 09 30.57330 01 31 05.570+30 35 09.73         21.1 wUET032F51
         K19S09U KC2019 10 01.22662301 33 17.83 +30 45 54.1          20.8 VuET032H21
         K19S09U KC2019 10 01.23534801 33 19.35 +30 46 03.2          20.6 VuET032H21
         K19S09U KC2019 10 01.24407101 33 20.87 +30 46 12.6          20.8 VuET032H21
         K19S09U KC2019 10 01.25424501 33 22.64 +30 46 23.1          20.7 VuET032H21
         K19S09U KC2019 10 02.01948801 35 52.72 +30 58 40.5          20.5 VvET032L01
         K19S09U KC2019 10 02.02146501 35 53.07 +30 58 42.4          20.3 VvET032L01
         K19S09U KC2019 10 02.02343901 35 53.37 +30 58 44.3          20.4 VvET032L01
         K19S09U KC2019 10 02.02541401 35 53.78 +30 58 45.8          20.3 VvET032L01
    
    Observer details:
    F51 Pan-STARRS 1, Haleakala.  Observers J. Bulger, K. Chambers, T. Lowe, E. 
       Magnier, A. Schultz, M. Willman.  Measurers S. Chastel, M. Huber, Y. 
       Ramanjooloo, R. Wainscoat, R. Weryk, K. Chambers, T. de Boer, L. Denneau, J. 
       Fairlamb, H. Flewelling, C.-C. Lin, E. Magnier.  1.8-m Ritchey-Chretien + 
       CCD.
    H21 Astronomical Research Observatory, Westfield.  Observer R. Holmes.  
        Measurers S. Foglia, L. Buzzi, T. Linder, R. Holmes.  0.76-m f/3.0 
       astrograph + CCD.
    L01 Visnjan Observatory, Tican.  Observers K. Korlevic, F. Valentine.  Measurer 
       K. Korlevic.  1.0-m f/2.9 reflector + CCD.
    
    Orbital elements:
    2019 SU9                                                 Earth MOID = 0.1099 AU
    Epoch 2019 Apr. 27.0 TT = JDT 2458600.5                 Veres
    M 266.04378              (2000.0)            P               Q
    n   0.52905721     Peri.  141.17543     +0.86845268     -0.49392652
    a   1.5140293      Node   248.47400     +0.44263648     +0.81131521
    e   0.2730012      Incl.    2.63324     +0.22330002     +0.31273667
    P   1.86           H   23.9           G   0.15           U   6
    Residuals in seconds of arc
    190904 F51  0.0   0.1+    190930 F51  0.0   0.1-    191002 L01  0.1-  0.1+
    190904 F51  0.1+  0.0     190930 F51  0.0   0.0     191002 L01  0.1-  0.2+
    190904 F51  0.2+  0.1+    191001 H21  0.0   0.3-    191002 L01  0.7-  0.3+
    190904 F51  0.2-  0.2-    191001 H21  0.2+  0.3-    191002 L01  0.2+  0.1-
    190930 F51  0.1+  0.1+    191001 H21  0.4+  0.0
    190930 F51  0.1-  0.0     191001 H21  0.6+  0.0
    
    Ephemeris:
    2019 SU9                 a,e,i = 1.51, 0.27, 3                   q = 1.1007
    Date    TT    R. A. (2000) Decl.     Delta      r    Elong.  Phase     V
    2019 09 02    00 16 49.7 +18 56 18   0.1991  1.1765   144.2    30.1    22.1
    ...
    2019 09 17    00 51 13.8 +25 36 26   0.1564  1.1390   146.5    29.2    21.4
    ...
    2019 09 25    01 13 42.3 +28 46 25   0.1401  1.1236   147.4    28.8    21.2
    ...
    2019 10 01    01 32 31.7 +30 42 18   0.1307  1.1145   148.1    28.3    21.0
    2019 10 02    01 35 49.1 +30 58 38   0.1293  1.1132   148.3    28.2    20.9
    2019 10 03    01 39 09.0 +31 14 00   0.1280  1.1120   148.4    28.1    20.9
    ...
    2019 10 09    01 59 49.2 +32 24 19   0.1217  1.1058   149.6    27.2    20.8
    ...
    2019 10 17    02 28 03.3 +32 52 58   0.1167  1.1012   152.0    25.1    20.6
    ...
    2019 11 01    03 14 22.3 +30 26 20   0.1178  1.1041   159.8    18.1    20.4
    
    A. U. Tomatic                (C) Copyright 2019 MPC           M.P.E.C. 2019-T32
    


    Read MPEC 2019-T31 Read MPEC 2019-T33


    MPEC number:

    Enter an MPEC number in one of the following forms:

    • 1997-B01 (the full form)
    • J97B01 (the packed version of the full form)
    • B01 (the abbreviated form)